Regional Weather Roundup
Issued by NWS

Home | Current Version | Previous Version | Graphics & Text | Print | Product List | Glossary On
Versions: 1 2 3 4 5 6 7 8 9 10 11 12 13 14 15 16 17 18 19 20 21 22 23 24 25 26 27 28 29 30 31 32 33 34 35 36 37 38 39 40 41 42 43 44 45 46 47 48 49 50
000
ASUS43 KLOT 260500
RWRIL

ILLINOIS REGIONAL WEATHER ROUNDUP
NATIONAL WEATHER SERVICE CHICAGO/ROMEOVILLE IL
1100 PM CST SUN JAN 25 2015

NOTE: "FAIR" INDICATES FEW OR NO CLOUDS BELOW 12,000 FEET WITH NO
SIGNIFICANT WEATHER AND/OR OBSTRUCTIONS TO VISIBILITY.

* THESE STATIONS ARE NOT UNDER NWS QUALITY CONTROL. THEY ALSO MAY NOT
  REPORT WEATHER SUCH AS PRECIPITATION OR FOG.

ILZ001-002-007-009-015-016-024-260600-
NORTHWEST ILLINOIS

CITY           SKY/WX    TMP DP  RH WIND       PRES   REMARKS
MOLINE         PTCLDY    20  13  74 N6        30.05F WCI  12
STERLING*      CLEAR     18  12  79 N7        30.04S WCI   8
$$

ILZ003-004-008-010-011-017-018-260600-
NORTH CENTRAL ILLINOIS

CITY           SKY/WX    TMP DP  RH WIND       PRES   REMARKS
ROCKFORD       PTCLDY    17  10  74 N8        30.03F WCI   7
$$

ILZ005-006-012>014-019>023-260600-
NORTHEAST ILLINOIS

CITY           SKY/WX    TMP DP  RH WIND       PRES   REMARKS
CHICAGO-OHARE  MOCLDY    24  15  68 NE9       29.99R WCI  14
CHICAGO-MIDWAY CLOUDY    27  18  69 N15       29.98S WCI  15
AURORA         CLEAR     18  12  77 N7        30.00S WCI   9
WAUKEGAN       PTCLDY    23  14  68 NE13      29.98F WCI  11
DUPAGE AIRPORT CLEAR     15  11  83 N7        29.98F WCI   5
WHEELING       CLOUDY    25  15  66 NE10      30.01S WCI  15
NORTHERLY ISL    N/A     25  17  72 N18         N/A  WCI  12
$$

LMZ740>746-260600-
SOUTHERN LAKE MICHIGAN

STATION/POSITION SKY/WX   TEMP    WIND        PRES    VSBY  WAVE
                          AIR SEA DIR/SP/G                  HT/PER
                          (F)     (DEG/KT/KT) (MB)    (MI)  (FT/S)
WAUKEGAN HARBOR            26      50/ 18/ 22   N/A
HARRISON CRIB              25      20/ 17/ 21   N/A
BURNHAM HARBOR             25      20/ 11/ 20   N/A
CALUMET HARBOR             25      20/ 14/ 20   N/A
MICHIGAN CITY              23      30/ 17/ 20   N/A
$$

ILZ025>027-034>036-040-047-049-050-058-095>099-260600-
WEST-CENTRAL ILLINOIS

CITY           SKY/WX    TMP DP  RH WIND       PRES   REMARKS
QUINCY         CLEAR     24  20  84 N9        30.05S WCI  14
$$

ILZ028>032-037-038-041>044-048-051>054-059>061-260600-
CENTRAL ILLINOIS

CITY           SKY/WX    TMP DP  RH WIND       PRES   REMARKS
DECATUR        CLOUDY    29  28  96 N18       29.96R WCI  16
PEORIA         CLEAR     23  15  71 N9        30.02S WCI  13
SPRINGFIELD    CLOUDY    28  21  75 N15       30.02R WCI  16
TAYLORVILLE    NOT AVBL
$$

ILZ033-039-045-046-055>057-062-063-260600-
EAST-CENTRAL ILLINOIS

CITY           SKY/WX    TMP DP  RH WIND       PRES   REMARKS
CHAMPAIGN      CLOUDY    28  24  85 N15       29.93R WCI  16
MATTOON        CLOUDY    29  24  82 N17       29.91R WCI  17
$$

ILZ079-100>102-260600-
SOUTHWEST ILLINOIS

CITY           SKY/WX    TMP DP  RH WIND       PRES   REMARKS
CAHOKIA*       CLOUDY    32  26  78 N16G26    30.01R WCI  21
$$

ILZ064>066-069>071-074>076-080>082-084>086-088>090-092>094-260600-
SOUTH-CENTRAL ILLINOIS

CITY           SKY/WX    TMP DP  RH WIND       PRES   REMARKS
CARBONDALE     CLOUDY    34  29  82 N21G28    29.93R WCI  22
MT. VERNON     CLOUDY    34  27  75 N8G16     29.91R WCI  27
$$

ILZ067-068-072-073-078-083-087-091-260600-
SOUTHEAST ILLINOIS

CITY           SKY/WX    TMP DP  RH WIND       PRES   REMARKS
LAWRENCEVILLE  CLOUDY    31  27  85 N20       29.87R WCI  19
$$

ABBREVIATIONS USED IN REMARKS
   TC - TEMPERATURE IN CELSIUS
  WCI - WIND CHILL INDEX
   HX - HEAT INDEX
  VSB - VISIBILITY
$$




USA.gov is the U.S. government's official web portal to all federal, state and local government web resources and services.